Wind_Speed
22 22 23 24 25 25 26 27 28 29 30 31 33 34 35 36 37 39 40 41 42 43 44 45 47 48 50 51 52 53 55 56 57 58 60 61 61 61 61 62 62 63 64 66 67 68 68 68 68 68 70 71 72 72 72 71 71 72 75 78 80 82 84 85 87 89 91 93 96 99 101 103 105 107 108 109 110 111 112 114 114 114 113 113 113
24 24 25 26 27 28 28 29 30 31 32 33 35 36 37 38 39 40 41 42 43 44 45 47 49 50 51 53 54 55 57 58 60 61 62 63 64 64 64 65 65 66 67 68 69 71 71 71 71 71 72 73 74 75 75 75 75 77 79 82 84 86 88 89 91 93 95 97 100 102 104 105 107 109 110 111 112 113 114 115 116 116 115 115 115
26 27 27 28 29 30 30 31 31 32 34 35 36 37 38 39 40 41 42 44 44 45 46 48 50 52 53 54 55 56 58 60 61 63 64 66 67 67 67 68 68 69 69 71 72 73 74 75 75 75 76 76 77 77 77 78 79 81 83 85 87 89 91 93 94 96 98 100 102 104 106 108 110 111 113 114 114 115 116 117 118 117 117 116 116
29 29 30 30 31 32 32 33 34 34 36 37 38 39 40 41 42 42 44 45 46 46 47 48 51 52 53 55 56 58 59 61 62 64 66 68 69 70 70 71 71 72 73 73 74 76 77 78 79 79 80 80 80 80 81 81 83 84 86 88 90 92 94 95 97 99 101 102 104 106 108 110 112 114 115 116 116 117 118 119 119 118 118 118 118
31 32 32 32 33 34 35 35 36 37 38 40 41 41 42 43 43 44 45 46 47 48 48 50 52 53 54 56 57 59 60 62 64 66 68 69 71 72 72 73 74 75 76 77 77 78 79 81 82 82 83 83 83 84 85 85 86 88 90 91 93 94 96 98 99 101 103 105 107 109 111 113 115 117 118 118 118 119 120 120 120 119 119 119 118
33 34 34 34 35 36 37 38 38 39 40 42 43 44 45 46 46 46 47 48 49 50 51 52 54 55 56 58 59 60 62 64 66 68 70 71 72 73 74 75 76 78 78 80 80 80 81 83 84 85 85 86 87 87 88 89 90 91 93 94 95 97 99 100 102 104 106 108 110 112 114 116 118 119 120 120 120 121 121 122 121 121 121 121 120
34 35 36 36 37 38 39 40 40 41 42 44 45 47 48 49 49 49 49 50 51 52 53 54 56 58 59 60 61 62 64 65 67 70 72 73 74 75 75 76 77 79 81 82 83 83 83 85 86 87 88 88 89 90 92 93 94 95 96 97 98 100 101 103 105 107 109 111 113 115 117 118 120 121 122 122 123 123 123 123 123 123 123 123 121
35 37 38 38 39 40 41 42 43 43 44 46 47 49 50 51 52 52 52 53 54 55 55 56 57 59 61 62 63 64 64 66 68 72 74 75 76 76 77 77 77 80 83 84 85 85 86 86 87 89 90 91 92 93 94 95 96 98 99 100 101 102 104 106 108 110 112 114 115 117 119 121 123 124 124 124 125 125 125 125 125 125 125 124 123
37 38 40 40 41 41 42 43 44 45 46 47 49 50 51 52 54 55 55 56 57 58 58 58 59 60 62 64 65 65 66 67 71 74 76 77 77 78 78 78 78 81 84 86 87 87 88 88 89 90 91 93 94 95 96 98 99 100 102 103 104 105 107 109 110 112 114 116 118 120 122 124 125 125 126 126 127 127 127 127 127 127 127 126 125
39 40 41 41 42 42 43 44 45 47 47 48 50 52 53 54 55 56 57 58 60 60 60 60 60 63 66 68 68 68 68 70 73 76 78 78 78 79 79 78 79 82 85 87 88 89 89 90 90 91 92 94 96 97 99 100 102 103 104 106 107 108 110 111 113 115 117 119 121 123 125 126 127 127 128 129 130 130 129 129 130 130 129 128 128
42 42 42 43 43 44 45 46 48 49 49 49 51 52 53 55 56 57 59 61 62 62 62 62 64 67 70 69 68 68 69 71 74 77 78 78 79 79 79 79 81 84 86 88 89 90 90 91 91 92 94 96 98 100 101 103 104 106 107 109 110 111 113 114 116 118 120 122 124 126 127 128 129 130 131 132 132 132 131 131 132 132 131 130 130
46 46 45 45 46 47 48 50 52 53 53 53 53 54 55 56 56 57 60 62 63 64 63 64 66 68 68 67 68 69 71 73 75 77 78 78 79 79 79 81 83 85 87 88 89 90 91 92 92 94 95 97 99 102 103 105 107 108 110 111 112 114 115 117 119 121 123 125 127 128 129 130 131 132 133 134 134 133 133 133 134 133 132 132 133
50 49 49 50 51 51 52 53 55 57 58 58 57 57 57 58 58 60 61 63 64 64 64 64 67 68 68 68 70 71 73 74 76 77 78 78 79 80 81 83 84 86 88 89 90 91 92 93 94 96 97 99 101 103 105 107 109 110 112 113 114 116 118 120 121 123 125 127 128 130 131 131 132 133 135 135 136 135 135 135 135 135 134 134 135
52 51 51 53 54 53 54 56 58 60 61 62 61 60 60 60 61 62 62 63 65 66 66 67 68 68 69 70 71 72 74 76 78 78 78 79 80 81 81 83 86 87 89 90 92 93 94 95 96 98 99 101 103 105 107 108 110 112 113 115 116 118 120 122 124 125 127 129 130 131 132 132 134 135 137 137 137 137 137 137 137 136 136 136 137
54 53 53 54 55 54 55 57 59 61 63 64 63 62 63 63 63 63 64 65 68 69 70 70 70 70 70 71 72 73 75 78 80 80 80 81 82 81 82 85 88 89 91 92 94 95 96 97 99 100 102 104 105 107 108 110 111 113 115 116 118 120 122 124 126 127 129 131 132 133 133 134 136 137 138 139 138 138 138 138 137 137 138 139 139
55 55 56 56 56 56 57 58 60 62 64 65 65 65 65 65 65 65 65 68 71 72 72 72 72 72 72 73 73 75 78 81 82 83 83 83 83 83 85 89 91 92 94 95 95 96 98 99 100 102 104 106 107 109 110 112 113 115 117 118 120 122 124 126 128 129 131 132 133 134 134 136 137 138 139 140 139 139 140 139 138 138 140 140 138
57 57 58 58 58 58 59 60 60 61 63 65 67 67 66 66 67 66 67 71 74 74 74 75 75 75 75 75 75 77 81 83 84 84 84 84 84 86 89 93 94 96 97 98 98 99 100 101 102 104 106 108 109 111 112 114 116 117 119 120 122 124 126 128 129 131 132 133 134 135 136 137 138 139 140 140 140 140 141 140 139 140 141 140 138
59 59 60 60 60 60 60 61 62 62 63 65 67 68 69 69 69 68 70 74 76 76 76 77 77 77 77 76 78 81 84 84 84 85 85 85 87 89 93 95 97 98 100 101 101 102 103 104 105 107 109 110 112 114 115 117 118 119 121 123 124 126 127 129 131 133 134 135 136 136 137 138 139 140 140 140 140 141 141 140 140 141 142 140 137
62 62 61 62 62 62 62 63 64 64 65 66 68 70 71 71 70 70 73 76 77 77 78 78 77 77 78 80 83 84 84 84 84 85 87 88 91 93 95 96 98 99 101 103 104 105 106 107 109 110 112 113 115 116 117 119 120 122 123 125 126 128 129 131 133 135 136 136 136 137 138 139 140 140 141 141 142 142 142 141 142 142 141 138 135
66 64 63 63 64 64 64 63 64 65 65 66 68 70 71 71 71 73 76 78 78 78 77 78 79 80 82 84 85 85 85 85 85 87 89 91 93 95 96 97 99 101 104 105 106 107 109 110 112 113 114 116 117 118 120 121 123 124 125 127 128 129 131 133 135 136 136 136 137 137 138 139 140 141 141 142 143 143 142 142 143 143 140 137 133
69 67 66 66 66 66 66 65 65 65 65 66 68 70 71 72 74 76 78 80 79 79 79 81 83 84 85 85 86 86 87 87 88 90 91 92 94 95 96 98 101 104 106 108 109 110 111 113 115 116 117 118 119 121 122 124 125 126 127 128 130 131 133 135 136 136 136 136 137 138 139 140 141 142 142 143 144 144 143 144 143 141 138 135 130
70 70 69 68 69 69 68 68 68 68 68 69 70 71 73 75 78 79 81 81 81 81 83 84 85 85 86 86 87 88 89 90 91 92 93 94 95 96 97 100 104 107 110 111 112 113 114 116 117 119 120 120 122 123 125 126 127 128 128 129 131 133 135 136 137 136 136 137 138 139 140 141 142 142 143 144 144 144 144 144 143 140 137 133 127
72 72 71 70 71 71 70 70 70 71 72 73 73 75 77 79 81 82 82 82 83 85 86 86 86 87 87 88 88 89 91 92 93 94 95 95 96 97 100 104 107 110 112 114 115 116 117 119 120 121 122 123 124 125 126 127 127 128 130 131 133 134 136 137 137 136 137 138 139 140 141 141 142 143 144 145 144 144 144 144 142 138 135 130 125
73 73 72 72 72 73 72 73 73 75 76 77 77 78 79 80 82 83 83 84 86 87 87 88 88 89 89 90 91 92 93 94 95 95 95 96 98 101 104 108 110 112 114 116 117 118 119 120 121 122 123 124 125 126 127 127 128 129 131 133 134 136 137 137 136 137 138 139 140 140 141 142 143 143 144 145 144 144 144 143 140 137 132 127 122
73 73 73 74 74 75 75 75 76 77 79 79 79 80 80 81 83 84 85 86 88 88 89 90 91 91 92 92 93 94 95 96 96 96 97 99 102 105 108 110 113 114 116 117 118 119 120 120 121 122 123 124 125 126 127 128 129 131 133 134 135 136 136 136 136 137 138 139 140 140 142 142 143 144 145 145 144 145 144 142 138 134 130 124 120
73 73 74 75 76 76 77 77 77 78 79 79 80 81 81 83 84 86 87 88 89 90 91 92 93 93 94 94 95 96 97 97 98 99 100 102 105 107 110 113 115 116 117 118 119 120 120 121 121 123 124 125 126 127 128 130 131 133 135 135 136 136 135 135 135 137 138 139 140 141 142 143 144 145 145 145 145 145 144 140 136 132 127 122 117
73 74 74 76 77 78 79 79 79 80 81 82 83 83 83 84 86 88 89 90 91 92 93 94 95 96 96 97 97 98 98 99 100 101 103 104 107 110 112 115 116 118 119 120 121 122 122 122 123 125 126 127 128 129 130 131 133 135 135 135 135 135 135 135 136 137 138 139 140 141 142 143 145 146 146 146 146 145 143 139 134 129 124 119 115
76 76 75 76 79 80 81 82 83 83 84 85 85 86 86 86 88 90 91 91 93 94 95 96 97 98 98 99 99 99 100 101 102 103 105 107 110 112 115 116 118 119 121 122 123 123 124 125 126 127 128 128 129 130 131 133 134 135 135 135 135 134 134 135 136 138 139 140 141 142 143 145 146 146 146 147 146 145 142 137 131 126 121 117 113
79 79 78 78 81 83 84 85 86 86 87 87 88 88 89 89 90 92 93 93 95 96 97 98 99 100 100 100 101 101 102 103 104 106 108 110 112 115 117 118 120 121 122 123 124 125 126 127 127 128 129 129 130 131 132 134 135 135 134 134 134 134 134 136 137 139 140 140 141 142 144 146 147 147 147 147 146 144 140 135 129 124 119 115 112
82 82 81 81 83 85 86 87 88 89 89 90 91 91 92 92 93 94 95 96 97 98 99 100 101 102 102 103 103 105 106 107 107 109 111 113 115 117 119 120 122 123 124 125 126 127 127 128 128 129 130 130 131 132 133 134 134 133 133 133 133 133 134 136 138 139 141 141 142 143 145 146 147 147 147 147 145 142 138 132 127 122 117 113 110
86 86 85 85 86 87 89 90 90 91 92 93 94 94 95 95 96 97 97 98 99 101 102 103 104 105 105 106 107 108 109 110 111 112 114 116 118 120 121 122 123 124 126 127 127 128 128 128 129 130 131 131 132 133 134 134 133 132 132 133 133 133 135 137 138 140 142 142 143 144 146 147 147 148 147 146 144 140 135 129 123 118 114 110 108
90 90 89 90 90 91 91 92 93 94 95 96 98 98 98 98 99 100 100 102 103 104 105 106 107 108 109 109 110 111 112 113 114 116 118 120 121 122 123 124 125 127 127 128 128 128 129 130 130 131 131 131 132 133 134 133 132 131 132 133 133 134 135 137 139 141 142 143 144 145 146 147 147 148 147 145 142 138 132 126 120 115 110 108 107
93 93 93 93 93 94 94 95 96 97 98 99 101 102 102 102 102 103 103 105 106 107 108 109 110 111 111 112 113 114 115 116 118 119 121 122 123 124 126 127 128 128 129 129 129 129 130 131 131 131 131 131 132 133 133 131 130 131 132 132 133 135 136 137 139 141 143 144 145 146 147 147 148 147 146 144 140 135 129 123 117 112 109 107 107
96 96 96 96 96 96 97 98 99 100 101 102 104 105 105 105 105 106 107 108 109 110 111 112 113 113 114 114 115 116 118 119 120 122 123 124 126 127 128 129 129 130 129 129 129 130 131 131 131 130 130 131 132 132 131 129 130 130 131 132 134 135 137 138 139 141 143 144 145 146 147 148 148 147 145 142 138 133 126 120 114 110 108 107 107
99 99 99 99 99 99 100 100 102 102 103 104 106 108 108 108 108 109 110 111 112 113 113 114 114 115 115 116 117 119 120 122 123 124 126 127 128 129 130 130 130 130 129 129 129 130 130 130 129 129 130 131 131 130 129 128 129 130 130 132 134 136 137 138 140 142 144 145 146 147 148 148 148 146 144 140 136 130 123 117 112 109 108 107 107
101 102 102 102 103 103 103 104 104 105 105 106 108 109 111 111 111 112 112 113 114 114 115 115 116 116 117 118 119 121 123 124 125 126 128 129 130 130 130 130 130 129 129 129 130 130 129 128 129 129 130 130 129 128 127 128 128 129 130 132 134 136 138 139 140 142 144 146 147 148 148 148 147 145 142 138 133 126 119 114 110 108 108 108 108
104 105 105 105 106 106 106 107 107 107 108 108 109 111 113 113 113 114 115 115 116 116 117 117 118 118 119 120 121 123 124 125 127 128 129 130 131 131 130 129 129 128 129 129 129 128 128 128 128 129 128 128 127 127 127 127 128 129 131 133 135 137 138 140 141 143 145 147 147 148 148 147 146 143 140 136 129 122 116 112 109 108 108 109 109
107 107 108 108 109 109 109 109 109 110 110 110 111 113 114 115 115 116 116 117 117 118 118 119 119 120 121 122 123 124 126 127 128 129 130 130 130 130 129 128 128 128 129 129 128 128 127 127 127 126 127 127 126 126 127 127 128 128 130 132 135 137 139 140 141 143 145 147 148 148 148 146 144 141 138 133 126 119 115 112 110 109 110 110 109
108 109 110 110 111 111 112 112 112 112 112 112 113 114 115 116 117 117 118 118 119 119 120 120 121 122 123 124 125 126 127 128 129 129 130 130 129 128 128 127 127 128 128 128 127 127 126 125 125 125 125 126 125 125 126 128 128 129 130 132 134 137 139 140 141 142 144 147 148 147 146 145 142 139 135 130 124 118 115 113 112 112 112 112 111
107 108 109 110 111 111 112 113 114 114 114 114 115 116 117 117 118 119 120 120 121 121 122 122 123 124 124 125 126 126 127 128 128 128 128 128 127 126 126 126 126 127 127 127 126 125 124 123 123 124 125 125 125 125 126 128 129 130 131 133 134 136 138 140 141 142 144 146 146 145 144 143 140 137 132 127 122 119 116 115 113 113 114 114 113
106 107 107 108 109 109 110 111 112 113 113 114 114 115 116 116 117 118 118 119 119 120 120 121 121 121 122 123 123 124 125 126 126 126 126 125 125 124 124 125 126 126 126 125 124 122 122 122 123 124 124 124 124 125 126 128 129 130 132 134 135 136 137 140 141 143 143 144 144 143 142 141 138 133 129 124 120 119 118 116 115 114 115 115 114
105 106 107 107 108 109 109 109 110 111 111 112 113 113 114 114 115 115 116 116 117 117 118 118 119 119 120 121 122 124 124 124 124 124 124 123 123 124 124 125 125 125 124 122 121 121 121 122 122 123 123 124 124 125 126 128 130 131 133 134 134 136 137 139 140 141 142 142 142 141 140 138 135 130 126 122 119 118 118 117 116 116 116 117 115
107 107 108 109 109 110 110 110 111 111 111 112 113 114 114 115 115 116 116 117 117 118 118 119 119 120 121 123 124 124 124 123 123 123 123 123 123 123 124 124 123 123 121 120 120 121 121 121 122 123 123 123 125 126 127 128 131 132 133 134 135 136 137 138 138 138 139 139 139 138 137 135 132 127 123 121 119 119 119 119 118 118 118 118 116
111 111 112 112 112 113 113 113 113 114 114 115 115 116 116 116 117 117 118 119 119 120 121 121 122 123 124 124 124 124 124 123 123 123 123 123 122 122 122 122 121 120 120 120 120 120 120 121 122 122 123 123 125 126 128 130 131 132 133 134 135 136 137 138 137 136 136 137 136 135 133 132 129 126 122 121 121 121 121 120 120 121 121 119 117
115 115 115 116 116 116 116 116 116 117 117 117 118 117 118 118 118 119 119 120 121 121 122 123 124 124 125 125 124 124 124 123 123 122 122 121 121 121 121 120 120 119 120 120 119 119 119 120 121 122 123 124 126 127 129 130 131 132 133 134 135 136 137 137 136 134 134 134 133 131 130 129 127 124 123 123 123 122 123 123 123 123 122 120 118
118 118 118 118 119 119 119 119 119 119 119 119 119 119 119 119 120 120 121 121 122 122 123 124 124 124 124 124 124 123 123 122 122 121 121 120 120 120 119 119 119 120 120 119 118 118 119 120 121 122 124 125 127 128 130 131 132 132 133 134 134 135 135 135 134 132 131 131 130 129 127 126 125 125 124 124 124 125 126 126 125 124 122 120 119
120 120 120 121 121 121 121 121 121 121 122 122 122 122 122 121 121 122 122 123 123 123 123 124 124 124 123 123 122 121 121 121 120 120 119 119 118 118 118 119 120 119 118 118 117 118 119 120 121 123 125 127 128 129 130 131 132 132 133 133 134 133 132 132 131 131 130 130 129 128 126 125 125 126 126 126 127 128 128 128 126 124 122 120 119
121 121 122 122 122 123 123 123 123 124 124 124 124 124 124 124 123 123 123 123 123 123 123 123 122 122 121 121 120 119 119 118 118 118 117 116 116 117 118 118 118 117 117 117 117 118 119 121 122 124 126 128 129 130 130 131 131 132 132 132 131 130 129 128 128 129 129 129 129 127 126 125 126 128 129 129 129 129 129 129 128 125 122 120 119
122 123 123 123 124 124 124 124 124 124 125 125 125 125 125 125 124 124 124 123 123 122 121 121 120 119 119 118 117 116 116 116 115 114 114 114 115 116 116 116 116 116 117 117 118 119 120 122 123 125 127 128 129 130 130 130 130 130 129 128 128 127 126 125 126 128 128 128 128 127 126 127 128 129 131 132 131 130 130 129 128 126 122 120 118
125 125 126 126 126 125 125 125 125 125 125 125 125 124 124 123 123 122 122 121 120 119 119 118 117 116 115 113 113 113 113 113 112 111 112 113 114 114 114 114 115 116 117 118 119 120 121 123 124 126 127 128 129 129 129 129 128 127 126 125 125 124 124 125 126 127 127 127 127 127 128 129 130 130 132 133 133 132 131 130 129 126 122 119 117
127 127 127 126 126 125 125 125 124 124 124 123 123 123 122 121 120 119 118 117 116 116 115 114 112 111 110 110 110 111 110 110 109 109 111 112 112 112 113 114 115 116 117 119 120 121 123 124 125 126 127 127 127 127 126 126 125 124 124 123 123 123 123 125 126 127 127 127 127 129 130 131 131 132 132 133 134 134 133 132 130 126 123 120 116
Wind_Direction
334 335 335 336 337 337 338 337 337 336 336 335 335 336 336 336 336 336 336 336 335 333 333 333 334 335 335 334 334 334 335 334 335 335 334 334 334 334 334 334 334 333 333 333 333 332 331 330 328 327 326 325 325 325 326 326 327 327 326 327 327 327 327 327 327 327 328 329 329 329 329 329 329 329 329 330 330 330 331 331 331 331 331 331 331
327 327 328 329 330 331 332 332 333 333 332 332 332 332 333 333 333 333 333 333 332 330 329 330 331 333 333 332 332 332 332 332 332 333 333 332 332 332 332 332 332 332 332 332 331 331 330 329 328 327 326 325 325 325 325 326 326 326 326 327 327 327 327 327 327 327 328 329 329 329 329 329 329 329 329 329 330 330 330 330 331 331 331 331 331
322 323 323 324 325 326 326 327 327 328 328 328 328 328 329 330 330 330 330 330 329 328 326 327 328 330 330 329 329 329 329 330 330 331 331 331 331 330 330 330 330 330 330 330 330 330 329 329 328 327 326 325 324 324 324 325 325 325 326 326 326 326 326 327 327 328 329 329 329 328 328 328 328 329 329 330 330 330 330 330 330 331 331 330 330
319 320 320 320 321 321 322 322 322 323 324 325 325 324 325 326 327 327 327 327 326 325 324 324 326 327 327 326 326 326 327 327 328 329 329 329 329 329 328 329 329 329 328 329 329 329 328 328 327 327 326 325 324 324 324 324 324 325 325 325 326 326 326 326 327 328 328 328 328 328 328 328 328 329 329 330 330 330 330 330 330 331 330 330 329
316 317 318 318 319 318 319 319 319 319 320 321 321 321 321 322 324 324 324 324 323 322 321 322 323 324 324 324 324 324 324 325 326 327 327 327 327 327 326 326 327 327 327 327 327 327 327 327 327 326 325 325 324 323 323 323 324 324 325 325 325 325 326 326 327 327 327 327 327 327 327 328 328 329 330 330 330 330 330 330 330 330 330 329 329
313 314 316 317 317 317 317 317 317 317 317 317 317 318 318 319 321 322 322 321 321 321 320 320 321 321 321 321 321 321 322 322 324 325 325 325 325 325 325 324 324 325 325 325 325 325 325 325 325 325 324 323 323 322 322 323 323 323 324 324 324 325 325 326 326 327 326 326 326 327 327 327 328 329 330 330 330 330 330 330 330 330 329 329 328
309 311 312 314 314 315 316 316 316 315 315 315 315 315 315 317 318 319 319 319 319 319 318 318 318 318 319 319 319 319 319 320 321 322 323 323 323 323 323 322 322 322 323 324 324 324 324 323 323 323 323 322 322 321 321 322 322 323 323 324 324 325 325 325 326 326 326 326 326 326 327 328 328 329 330 330 330 330 330 330 330 329 329 329 329
305 307 308 309 310 311 313 313 313 314 314 313 313 313 313 314 316 316 317 317 317 317 317 317 317 317 317 317 317 317 317 318 320 320 321 321 321 321 321 321 320 320 321 321 322 322 322 322 321 321 321 321 320 320 320 321 321 322 323 323 324 324 324 325 325 325 325 325 325 326 327 328 329 329 330 330 330 330 330 330 329 329 329 329 329
302 304 305 305 306 307 309 310 310 311 311 311 311 311 312 313 313 314 315 315 315 316 317 317 316 316 315 315 315 314 315 317 318 319 319 320 320 320 319 319 318 318 318 319 320 320 320 320 320 319 319 320 319 319 319 320 321 321 322 322 323 323 324 324 324 325 325 325 325 326 327 328 329 329 330 330 330 330 330 330 329 329 329 329 329
301 301 302 303 303 304 306 306 307 308 309 310 310 310 311 311 311 312 313 313 313 314 316 317 315 315 315 315 314 313 314 315 316 317 317 318 318 318 318 317 316 316 316 317 318 318 318 318 318 318 318 318 318 318 319 319 320 320 321 322 322 322 323 323 324 324 324 325 325 326 327 328 329 329 330 330 330 330 330 330 329 329 329 329 329
299 299 300 301 300 301 302 303 304 306 307 308 308 308 308 308 309 310 310 310 312 313 315 315 314 316 316 315 314 313 313 314 315 315 316 317 316 316 315 315 315 315 315 315 316 316 317 317 317 317 317 318 318 318 318 319 319 320 320 321 321 322 322 323 323 323 324 324 325 326 327 328 329 329 330 330 330 330 330 329 329 329 329 329 330
298 299 299 300 300 299 299 301 303 305 306 306 307 307 307 306 306 307 308 309 311 313 314 314 314 315 315 313 312 311 311 312 313 313 314 315 314 314 314 314 314 314 314 314 315 315 316 316 316 316 317 317 317 317 318 318 319 319 320 320 321 321 322 322 322 323 324 324 325 326 327 328 329 329 330 330 330 330 329 329 330 329 329 330 330
298 299 299 300 301 300 298 300 302 303 304 305 306 307 307 306 306 306 307 309 311 313 313 313 312 311 311 310 310 309 310 310 311 311 312 312 312 312 312 313 313 313 313 313 314 314 315 315 316 316 316 316 316 316 317 318 318 319 319 320 320 321 321 322 322 323 324 324 325 326 327 328 329 329 329 330 330 330 329 329 330 329 329 329 330
299 299 298 299 301 301 300 300 301 302 303 303 304 306 306 306 306 307 308 309 311 312 312 311 309 309 309 308 308 308 309 310 310 311 311 311 311 311 311 312 313 313 313 313 314 314 315 315 315 315 316 315 316 316 317 317 318 318 318 319 320 321 321 322 322 323 323 324 325 326 327 328 328 329 329 330 330 329 329 329 329 329 329 330 330
299 298 297 297 298 299 300 300 300 301 300 301 303 304 304 305 306 306 307 308 311 311 311 310 309 308 308 307 307 308 309 310 311 310 310 309 310 310 310 312 313 314 314 314 314 314 314 314 315 315 315 315 315 316 316 316 317 317 318 319 320 321 321 322 322 322 323 324 325 326 327 328 329 329 329 330 329 329 329 329 329 329 329 330 329
298 298 298 298 297 297 297 297 298 299 299 300 302 303 302 303 304 305 306 308 310 310 310 310 309 308 307 307 307 308 309 311 311 310 309 309 309 309 309 311 313 314 314 314 314 314 314 314 314 314 314 314 315 315 315 316 316 317 318 319 320 320 321 321 322 322 323 325 326 326 327 328 329 329 329 329 329 329 329 328 328 329 329 329 329
298 298 299 299 298 297 296 296 296 297 297 298 299 301 301 301 303 304 305 307 309 310 310 309 308 307 307 306 307 308 309 311 310 310 309 309 309 309 310 311 313 313 314 314 314 314 314 314 313 313 314 314 314 315 315 315 316 317 318 319 319 320 321 321 322 323 324 325 326 327 327 328 329 329 329 329 328 328 328 328 329 329 329 329 328
296 297 298 299 299 298 297 296 296 296 296 296 297 299 299 300 302 303 304 307 308 309 309 309 307 306 306 306 307 308 309 310 310 310 309 308 308 309 310 311 312 313 313 313 313 313 313 313 313 313 314 314 314 314 315 316 317 317 318 318 319 320 321 321 322 323 325 326 326 327 327 328 328 328 328 328 328 328 328 328 329 329 329 328 328
296 295 296 297 298 298 298 298 298 298 297 297 297 297 299 300 301 301 303 306 307 308 308 308 307 306 306 306 307 308 309 310 310 310 309 309 309 310 310 311 312 312 312 312 312 312 313 313 313 313 313 314 314 315 315 316 316 317 317 318 319 320 321 322 323 324 325 326 327 327 327 327 328 328 327 327 327 327 328 328 329 329 328 328 328
295 294 294 295 296 297 298 298 298 299 298 298 298 298 299 299 299 300 302 304 306 307 307 306 305 305 305 306 307 308 308 309 309 309 309 309 310 310 310 310 310 310 310 311 311 312 312 312 313 313 314 314 315 315 316 316 316 317 318 319 320 321 322 323 323 325 326 326 326 326 326 327 327 327 327 327 327 327 328 328 328 328 328 328 327
293 293 293 293 294 295 296 297 298 298 298 297 298 298 298 298 298 299 301 303 304 305 305 304 304 305 306 306 307 307 308 308 308 308 309 309 310 309 309 309 309 309 310 310 311 311 312 312 313 313 314 315 315 315 316 316 317 318 319 320 321 322 322 322 323 325 325 325 325 326 326 326 326 326 327 327 327 327 328 328 328 328 328 327 327
291 292 292 292 292 293 294 295 296 296 296 296 296 296 297 297 298 299 300 301 302 303 303 303 304 304 305 306 306 307 307 308 308 309 309 309 309 308 307 307 308 309 309 310 311 311 312 313 313 314 314 315 315 315 316 316 317 318 319 320 321 321 322 322 324 324 325 325 325 325 326 326 326 326 326 327 327 327 327 327 328 328 328 327 327
289 290 290 291 291 292 293 293 294 294 294 295 296 295 296 296 297 298 299 300 300 301 302 303 303 304 304 305 306 306 307 308 308 309 309 308 307 307 306 307 308 309 309 310 311 312 312 313 313 314 315 315 316 316 316 316 317 318 319 320 320 321 321 322 324 324 324 324 325 325 325 326 326 326 326 326 326 326 327 327 328 328 327 327 326
288 288 288 289 289 289 290 291 292 293 294 295 295 295 295 296 296 297 298 298 299 300 301 302 302 303 303 304 305 306 307 307 308 308 307 306 306 306 306 307 308 309 310 310 311 312 312 313 313 314 314 315 315 315 316 316 317 318 319 319 320 321 321 323 323 323 324 324 325 325 325 325 325 325 325 325 326 326 327 328 328 328 327 327 326
286 286 287 287 287 288 289 290 291 292 293 294 295 295 295 296 296 296 297 297 298 299 300 301 301 302 303 304 305 306 306 307 307 307 306 305 305 305 306 307 308 308 309 310 310 311 311 312 313 313 314 314 314 315 315 316 317 318 319 319 320 321 322 322 323 323 323 324 324 324 324 324 325 325 325 325 326 326 327 328 328 328 327 327 326
286 286 286 286 286 287 288 288 289 290 292 292 293 293 294 294 295 295 296 297 298 299 299 300 301 302 303 304 304 305 306 306 306 305 305 305 305 305 306 306 307 308 309 309 310 310 311 311 312 313 313 313 314 314 315 316 317 318 319 319 320 321 322 322 322 323 323 323 323 323 324 324 324 324 325 325 326 326 327 328 328 328 327 327 327
285 285 285 285 285 286 286 287 289 290 290 291 291 292 292 293 294 294 295 296 297 298 298 299 300 302 302 303 304 304 305 305 304 304 304 304 304 305 305 306 307 307 308 309 309 310 310 311 312 312 313 313 314 315 316 316 317 318 318 319 320 321 321 321 322 322 323 323 323 323 323 323 324 324 325 325 326 327 327 328 328 328 328 327 327
284 285 285 285 285 285 286 287 288 289 289 289 290 290 291 292 292 293 294 295 296 297 298 299 300 301 301 302 303 303 303 303 303 303 303 303 304 304 304 305 306 307 308 309 309 309 310 311 312 313 313 314 315 315 315 316 316 317 318 319 320 320 321 321 321 322 322 322 322 322 323 323 323 324 325 325 326 327 328 328 328 328 328 327 327
283 284 285 284 284 285 285 286 287 288 288 288 289 289 290 291 292 292 293 294 295 296 297 298 299 299 300 301 302 302 301 301 302 302 302 302 303 303 304 305 306 307 308 308 309 309 310 311 312 313 313 314 314 315 315 315 316 317 318 319 319 320 320 320 321 321 321 322 322 322 322 323 324 324 325 325 326 327 328 328 329 328 328 328 327
283 284 284 284 283 284 285 286 286 287 287 288 288 289 290 290 291 292 293 294 294 295 296 296 297 298 299 299 300 300 300 301 301 301 301 302 302 303 304 305 306 307 307 308 308 309 310 311 312 312 313 314 314 314 314 315 316 317 318 318 319 319 320 320 320 321 321 321 321 322 322 323 323 324 325 325 326 327 328 328 329 328 328 328 328
282 283 284 284 283 284 284 285 286 286 287 288 288 289 289 290 291 291 292 293 293 294 295 295 296 297 298 298 299 299 300 300 300 300 301 301 302 303 304 305 306 306 307 307 308 309 310 311 311 312 313 313 313 313 314 315 316 317 317 318 319 319 319 320 320 320 321 321 321 321 322 323 323 324 324 325 326 327 328 328 328 328 328 328 328
282 283 283 283 283 284 284 285 285 286 287 287 288 289 290 290 291 292 292 292 293 293 294 295 296 297 297 298 298 299 299 299 300 300 300 301 302 303 304 305 305 306 306 307 308 309 310 310 311 312 312 313 312 313 314 315 316 316 317 318 318 319 319 319 320 320 320 320 321 321 322 323 323 324 324 325 326 327 328 328 328 328 328 329 329
281 282 283 283 283 284 284 284 285 286 286 287 288 289 290 291 291 292 292 292 293 293 294 295 296 296 297 298 298 299 299 299 300 300 301 302 302 303 304 304 305 306 306 307 308 309 309 310 311 312 312 312 312 313 314 315 316 316 317 318 318 318 319 319 319 319 320 320 320 321 322 322 323 324 324 325 327 327 328 328 328 329 329 330 331
281 282 282 283 284 284 284 285 285 285 286 287 288 289 290 290 291 292 292 292 293 294 294 295 296 296 297 298 298 299 299 299 300 300 301 302 302 303 303 304 305 306 306 307 308 308 309 310 311 311 311 311 311 312 314 315 315 316 317 317 318 318 318 319 319 319 319 320 320 321 321 322 323 324 325 326 327 327 328 328 329 329 330 331 332
281 282 282 283 284 284 285 285 285 286 286 287 288 289 289 290 291 292 292 293 293 294 295 295 296 296 297 297 298 298 299 299 300 300 301 301 302 302 303 304 305 305 306 306 307 308 309 310 310 310 310 310 311 312 314 314 315 316 317 317 317 317 318 318 318 318 319 319 320 320 321 322 323 324 325 326 327 328 328 328 329 330 331 333 333
281 282 283 284 284 285 285 285 286 286 287 287 288 289 289 290 291 291 292 293 293 294 295 295 296 296 297 297 297 298 298 299 299 300 300 301 302 302 303 303 304 305 305 306 307 308 308 309 309 309 309 310 311 312 313 314 315 316 316 316 317 317 317 317 318 318 318 319 320 320 321 322 323 324 325 326 327 328 328 329 330 331 333 334 334
282 282 283 284 284 285 285 286 286 287 287 288 288 289 289 290 291 292 292 293 293 294 294 295 296 296 296 297 297 297 298 298 299 299 300 300 301 301 302 303 304 304 305 305 306 307 307 308 308 308 309 310 311 312 313 314 315 315 316 316 316 316 317 317 317 317 318 319 320 320 321 322 323 324 325 326 327 328 328 330 331 332 334 335 335
282 283 284 284 285 285 286 286 287 287 287 288 288 289 289 290 291 292 292 293 293 294 294 295 295 295 296 296 296 296 297 297 298 298 299 300 300 301 302 302 303 303 304 305 306 306 307 307 307 308 309 310 311 312 313 313 314 315 315 315 316 316 316 316 317 317 318 319 320 320 321 321 322 324 325 326 327 328 329 331 332 334 335 336 336
282 283 283 284 285 285 286 286 287 287 287 288 288 288 289 290 290 291 292 292 292 293 293 294 294 294 294 295 295 295 296 297 297 298 299 299 300 300 301 302 302 303 304 304 305 305 306 307 307 308 309 310 311 312 312 313 313 314 314 314 315 315 315 316 317 317 318 318 319 320 320 321 323 324 325 326 327 329 330 332 333 335 336 337 337
282 282 283 284 284 284 285 286 286 286 287 287 287 288 288 289 289 290 290 291 291 292 292 292 293 293 293 294 294 295 296 296 297 298 298 299 299 300 300 301 301 302 303 303 304 305 306 306 307 308 309 310 311 311 312 312 313 313 314 314 314 314 315 315 316 317 317 318 318 319 320 321 323 324 325 327 328 329 331 332 334 336 336 337 338
281 282 282 283 283 284 284 285 285 286 286 287 287 288 288 289 289 290 290 291 291 291 292 292 292 293 293 294 294 295 295 296 297 297 297 298 298 299 299 300 301 301 302 303 304 305 306 306 307 308 309 310 310 310 311 312 312 312 313 313 313 314 314 315 316 317 317 317 318 319 320 322 323 324 326 327 328 329 331 333 335 336 337 338 338
281 281 282 282 283 283 284 284 285 285 286 287 287 288 288 289 289 289 290 290 291 291 291 292 292 292 293 293 294 294 295 296 296 296 297 297 298 298 299 300 300 301 302 303 304 305 306 306 307 308 309 309 309 310 310 311 311 311 312 312 313 313 314 315 316 316 316 317 318 319 321 322 323 324 326 327 328 330 331 333 335 336 337 337 338
281 282 282 282 283 283 283 284 284 284 285 285 286 286 287 287 288 288 288 289 289 290 290 290 291 291 292 292 293 294 295 295 295 295 296 296 297 298 299 299 300 301 302 303 304 305 306 306 307 307 308 308 309 309 310 310 310 311 311 312 312 313 314 315 315 315 316 316 318 319 321 322 323 324 326 327 328 330 332 334 335 337 337 337 337
282 283 283 283 283 284 284 284 284 285 285 285 285 286 286 286 287 287 287 288 288 288 289 289 290 290 291 292 293 293 294 294 294 295 296 296 297 298 299 299 300 301 302 303 304 305 305 306 306 307 307 307 308 308 309 309 310 310 311 312 312 313 313 314 314 315 315 317 318 319 321 322 323 324 326 327 329 331 332 334 336 337 337 337 337
283 284 284 284 285 285 285 285 285 285 286 286 286 286 286 286 286 287 287 287 287 287 288 288 289 290 291 291 292 292 293 293 294 295 295 296 297 298 299 300 300 301 302 303 304 305 305 305 305 306 306 307 307 307 308 309 309 310 311 311 312 313 313 313 314 315 316 317 318 319 321 322 323 324 326 327 329 331 333 334 335 336 336 337 337
283 283 284 284 284 284 284 285 285 285 285 285 285 285 285 286 286 286 286 286 286 286 287 287 288 289 289 290 291 291 292 292 293 294 295 296 297 298 299 299 300 301 302 303 303 304 304 304 305 305 306 306 306 307 307 308 309 310 311 311 312 312 312 313 314 315 316 317 318 319 321 322 323 324 326 328 330 331 333 334 335 336 336 336 336
282 282 283 283 283 283 283 283 284 284 284 284 284 284 284 284 284 284 285 285 285 285 286 286 287 287 288 289 290 290 291 292 293 294 295 296 297 298 298 299 300 301 301 302 302 303 303 303 304 304 305 305 306 307 307 308 309 310 310 311 311 312 312 313 314 315 316 317 318 320 321 322 324 325 326 328 330 331 332 333 334 335 336 336 336
281 281 281 282 282 282 282 282 283 283 283 283 283 283 283 284 284 284 284 284 284 285 285 286 286 287 287 288 289 290 291 292 293 294 295 296 297 297 298 299 299 300 301 301 302 302 302 303 303 304 304 305 306 306 307 308 309 309 310 310 311 312 313 314 315 315 316 318 319 320 322 323 324 325 326 328 329 330 331 333 334 335 336 336 336
281 281 281 281 281 281 281 281 282 282 282 282 282 282 282 283 283 283 283 284 284 284 285 285 286 286 287 288 289 290 291 292 293 294 295 296 296 297 298 298 299 299 300 300 300 301 301 302 303 303 304 305 306 307 307 308 309 309 310 310 311 312 313 314 315 315 316 318 319 320 322 323 324 325 326 327 328 330 331 332 334 334 335 335 335
281 281 281 280 280 280 280 280 280 281 281 281 281 281 281 282 282 282 283 283 283 284 284 285 286 287 288 289 290 291 291 293 294 294 295 295 296 296 297 297 298 298 299 299 299 300 301 302 303 303 304 305 306 306 307 308 308 309 309 310 311 312 313 314 314 315 317 318 319 320 321 322 323 324 325 326 328 329 331 332 333 334 334 334 335
280 280 280 280 280 280 280 280 280 280 280 280 280 281 281 281 282 282 283 283 284 284 285 286 287 288 289 290 290 291 292 293 293 294 294 295 295 295 296 296 297 297 298 298 299 300 301 302 303 304 304 305 306 306 307 308 308 309 309 310 311 312 313 314 315 316 317 318 319 320 321 322 323 324 325 326 327 329 330 332 333 333 334 334 334
Height
10901 10900 10898 10897 10896 10895 10893 10892 10891 10889 10888 10886 10885 10883 10881 10880 10878 10876 10874 10872 10870 10867 10865 10863 10861 10859 10857 10854 10852 10850 10847 10845 10843 10840 10837 10834 10831 10828 10825 10822 10818 10815 10811 10808 10804 10800 10797 10793 10789 10785 10781 10777 10773 10769 10765 10761 10757 10753 10748 10744 10739 10735 10730 10726 10721 10716 10710 10704 10698 10691 10685 10679 10673 10667 10661 10655 10649 10642 10636 10629 10622 10615 10608 10601 10594
10899 10898 10897 10896 10895 10893 10892 10891 10889 10888 10886 10884 10883 10881 10879 10878 10876 10874 10872 10870 10867 10865 10862 10860 10858 10856 10854 10851 10849 10846 10844 10842 10839 10836 10833 10830 10827 10824 10820 10817 10814 10810 10807 10803 10799 10796 10792 10788 10784 10781 10776 10772 10768 10764 10760 10755 10751 10747 10742 10738 10733 10728 10723 10718 10713 10708 10702 10696 10689 10683 10677 10671 10665 10660 10654 10648 10641 10635 10627 10620 10612 10605 10599 10592 10586
10898 10897 10896 10894 10893 10892 10890 10889 10888 10886 10884 10882 10881 10879 10877 10875 10874 10872 10870 10868 10865 10863 10860 10857 10855 10853 10851 10848 10846 10843 10841 10838 10835 10833 10830 10826 10823 10820 10816 10813 10809 10806 10802 10798 10795 10791 10787 10783 10779 10775 10771 10767 10763 10759 10754 10750 10746 10741 10736 10731 10727 10721 10716 10711 10706 10700 10694 10688 10682 10676 10670 10664 10658 10652 10646 10639 10632 10625 10617 10610 10603 10595 10589 10583 10576
10896 10895 10894 10893 10891 10890 10889 10887 10886 10884 10882 10880 10878 10877 10875 10873 10871 10869 10867 10865 10863 10860 10857 10854 10853 10850 10848 10845 10842 10840 10837 10834 10831 10829 10826 10822 10819 10815 10812 10808 10805 10801 10797 10793 10789 10785 10781 10777 10773 10769 10765 10761 10757 10753 10749 10745 10740 10735 10730 10725 10720 10715 10710 10705 10699 10694 10687 10681 10675 10669 10663 10657 10651 10644 10638 10630 10623 10616 10608 10601 10594 10587 10580 10574 10567
10894 10893 10892 10890 10889 10888 10886 10885 10883 10882 10880 10878 10876 10874 10872 10870 10869 10867 10865 10862 10860 10857 10854 10852 10850 10848 10845 10842 10839 10836 10833 10830 10827 10824 10821 10818 10815 10811 10807 10804 10800 10796 10792 10788 10784 10780 10776 10772 10767 10763 10759 10755 10751 10747 10743 10738 10734 10729 10724 10719 10714 10709 10704 10698 10693 10687 10680 10674 10668 10661 10655 10649 10643 10636 10629 10622 10614 10607 10599 10592 10585 10578 10571 10564 10557
10892 10890 10889 10888 10886 10885 10883 10882 10881 10879 10877 10875 10873 10871 10869 10867 10866 10864 10862 10859 10856 10854 10851 10849 10846 10844 10841 10838 10835 10832 10829 10826 10823 10820 10817 10813 10810 10806 10803 10799 10795 10791 10787 10782 10778 10774 10770 10766 10762 10757 10753 10749 10745 10741 10736 10732 10727 10723 10718 10713 10708 10703 10697 10691 10685 10679 10673 10666 10659 10653 10647 10641 10635 10628 10620 10613 10605 10597 10589 10582 10575 10568 10561 10553 10546
10889 10888 10886 10885 10884 10882 10880 10879 10877 10876 10874 10872 10870 10867 10865 10864 10862 10860 10858 10855 10853 10850 10848 10845 10843 10840 10837 10834 10831 10828 10825 10822 10818 10815 10812 10809 10805 10802 10798 10794 10790 10785 10781 10777 10773 10769 10765 10760 10756 10751 10747 10743 10739 10734 10730 10725 10721 10716 10711 10706 10701 10696 10690 10683 10677 10670 10664 10657 10651 10645 10639 10632 10625 10618 10610 10602 10594 10586 10579 10571 10564 10557 10549 10542 10533
10887 10885 10884 10882 10881 10879 10877 10875 10874 10872 10870 10869 10866 10864 10862 10859 10858 10856 10854 10852 10849 10846 10844 10842 10839 10835 10832 10829 10826 10823 10820 10817 10814 10811 10807 10804 10800 10796 10793 10789 10785 10780 10776 10772 10768 10763 10759 10755 10750 10745 10741 10736 10732 10728 10723 10719 10714 10709 10704 10699 10694 10688 10682 10675 10669 10662 10655 10649 10643 10636 10630 10623 10615 10607 10599 10591 10583 10576 10568 10560 10553 10545 10537 10529 10521
10884 10882 10881 10879 10878 10876 10874 10872 10871 10869 10867 10865 10863 10860 10858 10855 10853 10851 10850 10847 10845 10842 10840 10837 10834 10831 10828 10825 10822 10819 10816 10813 10809 10806 10802 10798 10794 10790 10787 10783 10779 10775 10771 10766 10762 10758 10754 10749 10744 10739 10734 10730 10725 10721 10716 10711 10706 10701 10696 10691 10685 10680 10674 10667 10660 10653 10646 10640 10633 10627 10620 10612 10605 10597 10589 10581 10572 10564 10556 10548 10540 10532 10524 10516 10507
10881 10879 10878 10876 10875 10873 10871 10869 10867 10865 10863 10861 10859 10857 10855 10852 10849 10847 10845 10843 10840 10837 10835 10833 10830 10827 10823 10820 10817 10814 10811 10808 10804 10800 10796 10793 10789 10785 10781 10777 10773 10769 10765 10761 10756 10752 10748 10743 10738 10733 10728 10722 10718 10713 10708 10703 10698 10693 10688 10682 10677 10671 10664 10658 10651 10644 10637 10631 10624 10617 10609 10602 10594 10585 10577 10568 10560 10551 10544 10535 10527 10519 10511 10503 10494
10877 10876 10874 10873 10871 10870 10868 10865 10863 10862 10860 10858 10856 10853 10851 10848 10845 10843 10840 10838 10836 10833 10831 10828 10825 10822 10819 10816 10813 10809 10806 10803 10799 10794 10790 10787 10783 10779 10775 10771 10767 10763 10759 10754 10750 10746 10741 10736 10731 10726 10721 10715 10709 10704 10700 10694 10689 10684 10678 10673 10668 10661 10655 10648 10641 10634 10628 10621 10613 10606 10598 10590 10581 10573 10564 10556 10548 10540 10533 10524 10515 10507 10499 10490 10481
10873 10872 10870 10869 10867 10866 10864 10861 10859 10857 10856 10854 10852 10849 10847 10844 10841 10839 10836 10833 10831 10828 10826 10823 10821 10818 10814 10811 10807 10804 10801 10797 10793 10789 10785 10781 10778 10774 10770 10765 10761 10757 10752 10747 10743 10738 10734 10729 10724 10719 10714 10708 10702 10696 10691 10685 10680 10674 10669 10664 10658 10652 10645 10639 10631 10624 10617 10609 10602 10595 10587 10578 10570 10562 10554 10546 10538 10529 10521 10512 10503 10494 10486 10478 10469
10869 10868 10866 10865 10863 10861 10859 10857 10855 10853 10851 10849 10847 10845 10843 10840 10837 10834 10832 10829 10826 10824 10821 10819 10816 10813 10809 10805 10802 10798 10795 10792 10788 10784 10779 10776 10772 10768 10763 10759 10754 10750 10745 10740 10736 10731 10726 10721 10716 10711 10706 10701 10695 10689 10683 10677 10671 10665 10660 10655 10649 10643 10636 10628 10620 10613 10606 10599 10592 10584 10576 10568 10560 10552 10544 10535 10526 10516 10508 10500 10491 10483 10474 10466 10457
10865 10864 10862 10861 10859 10858 10855 10853 10850 10848 10846 10844 10843 10841 10838 10835 10832 10829 10826 10824 10821 10819 10817 10814 10811 10807 10804 10800 10796 10793 10789 10786 10782 10778 10773 10769 10765 10761 10757 10752 10747 10743 10738 10733 10728 10723 10718 10713 10708 10703 10697 10692 10686 10680 10675 10669 10663 10657 10651 10646 10640 10633 10626 10618 10610 10604 10597 10590 10583 10574 10565 10557 10549 10540 10532 10522 10513 10505 10497 10488 10480 10472 10463 10454 10444
10860 10859 10858 10856 10855 10853 10851 10849 10846 10844 10841 10839 10838 10836 10832 10830 10827 10824 10821 10818 10815 10813 10811 10808 10805 10801 10798 10795 10791 10787 10783 10779 10775 10771 10767 10762 10758 10754 10749 10745 10740 10735 10730 10725 10720 10715 10710 10705 10700 10694 10689 10683 10677 10672 10666 10661 10655 10649 10643 10637 10631 10624 10617 10609 10601 10595 10588 10580 10572 10563 10554 10545 10537 10528 10519 10510 10502 10494 10485 10478 10470 10460 10450 10441 10432
10855 10854 10853 10851 10849 10848 10846 10844 10842 10840 10837 10834 10832 10830 10827 10824 10822 10819 10815 10812 10810 10807 10805 10802 10799 10795 10792 10789 10785 10781 10776 10772 10768 10764 10760 10756 10751 10747 10741 10736 10731 10726 10721 10717 10712 10708 10703 10698 10692 10686 10681 10675 10669 10664 10658 10652 10646 10641 10635 10629 10622 10616 10608 10600 10592 10585 10578 10570 10561 10552 10542 10534 10525 10517 10508 10499 10491 10483 10475 10467 10459 10449 10439 10429 10421
10851 10849 10847 10846 10845 10843 10840 10838 10837 10835 10832 10830 10827 10824 10821 10819 10816 10813 10810 10807 10804 10801 10798 10795 10792 10789 10785 10782 10779 10775 10770 10765 10760 10756 10752 10749 10744 10739 10733 10728 10722 10717 10713 10708 10704 10699 10694 10690 10684 10678 10672 10667 10661 10655 10649 10643 10637 10632 10626 10620 10613 10607 10600 10591 10583 10575 10568 10559 10549 10539 10530 10522 10514 10506 10497 10489 10481 10473 10465 10457 10448 10439 10429 10418 10409
10846 10844 10842 10840 10839 10837 10835 10833 10831 10829 10827 10825 10822 10819 10816 10813 10811 10808 10804 10801 10798 10795 10791 10788 10784 10781 10778 10775 10772 10769 10764 10758 10753 10748 10743 10740 10736 10732 10726 10720 10714 10708 10703 10699 10694 10690 10685 10681 10676 10670 10664 10658 10652 10646 10640 10633 10628 10623 10617 10611 10605 10598 10590 10581 10572 10563 10555 10546 10536 10527 10518 10511 10504 10496 10488 10480 10472 10464 10455 10447 10438 10428 10418 10407 10397
10840 10839 10837 10835 10833 10832 10830 10828 10825 10823 10820 10818 10816 10813 10810 10807 10805 10802 10798 10795 10792 10789 10785 10781 10777 10774 10771 10768 10765 10761 10758 10753 10748 10742 10736 10731 10727 10723 10718 10712 10706 10700 10695 10690 10686 10681 10676 10671 10666 10660 10655 10649 10642 10636 10630 10624 10618 10613 10608 10601 10594 10586 10577 10568 10559 10551 10543 10535 10525 10517 10509 10503 10495 10487 10479 10471 10463 10454 10444 10436 10427 10418 10408 10397 10387
10834 10832 10831 10829 10827 10826 10824 10823 10820 10817 10815 10813 10810 10807 10804 10801 10799 10796 10792 10789 10786 10783 10779 10775 10771 10767 10764 10761 10757 10753 10749 10746 10741 10736 10731 10725 10719 10713 10708 10702 10696 10691 10686 10682 10677 10672 10667 10661 10656 10651 10645 10639 10633 10626 10620 10614 10608 10602 10596 10589 10581 10573 10564 10556 10548 10541 10534 10526 10517 10509 10501 10494 10486 10478 10470 10461 10452 10443 10433 10425 10416 10407 10397 10386 10376
10828 10826 10824 10823 10820 10819 10818 10816 10814 10811 10809 10807 10805 10801 10798 10795 10793 10790 10786 10782 10780 10777 10773 10769 10765 10761 10757 10753 10749 10745 10741 10737 10733 10728 10723 10718 10712 10705 10700 10694 10687 10681 10676 10672 10668 10664 10658 10652 10646 10640 10636 10630 10623 10616 10609 10602 10595 10589 10583 10576 10569 10561 10554 10546 10539 10532 10525 10518 10509 10501 10493 10486 10477 10468 10459 10450 10442 10432 10423 10415 10406 10397 10386 10375 10366
10822 10819 10818 10816 10813 10812 10812 10810 10807 10804 10802 10801 10799 10795 10792 10789 10786 10783 10779 10775 10772 10770 10766 10762 10758 10754 10750 10746 10742 10738 10733 10729 10724 10719 10714 10709 10703 10697 10691 10685 10679 10672 10666 10661 10657 10652 10647 10641 10634 10628 10623 10618 10612 10604 10596 10590 10584 10578 10572 10567 10560 10553 10545 10538 10531 10523 10516 10509 10501 10492 10484 10476 10467 10458 10449 10441 10432 10423 10415 10405 10396 10386 10374 10363 10354
10815 10813 10812 10809 10807 10805 10805 10803 10800 10797 10794 10794 10792 10789 10786 10783 10778 10775 10772 10768 10765 10762 10759 10755 10751 10748 10744 10740 10735 10731 10726 10721 10716 10710 10705 10699 10693 10688 10681 10675 10670 10663 10656 10650 10644 10640 10635 10630 10623 10616 10610 10605 10599 10592 10586 10580 10575 10569 10564 10559 10552 10544 10536 10529 10521 10514 10507 10500 10491 10482 10473 10466 10458 10449 10441 10432 10424 10415 10406 10396 10385 10374 10363 10352 10342
10808 10807 10805 10803 10801 10799 10798 10796 10794 10791 10788 10787 10785 10781 10779 10776 10771 10767 10764 10762 10758 10755 10752 10748 10744 10740 10736 10733 10728 10724 10719 10714 10709 10703 10697 10691 10685 10679 10673 10667 10662 10656 10650 10643 10637 10631 10627 10623 10616 10609 10602 10596 10590 10583 10577 10572 10567 10562 10556 10550 10543 10535 10527 10519 10512 10505 10497 10489 10480 10471 10464 10457 10449 10440 10432 10424 10415 10406 10396 10386 10374 10362 10351 10340 10329
10801 10800 10798 10796 10794 10792 10790 10789 10788 10785 10781 10780 10777 10774 10772 10768 10764 10759 10756 10754 10750 10747 10744 10740 10736 10733 10729 10725 10721 10717 10712 10707 10701 10696 10690 10683 10677 10671 10665 10659 10654 10649 10644 10639 10633 10627 10621 10618 10612 10604 10597 10591 10584 10577 10571 10565 10559 10553 10547 10540 10533 10524 10517 10510 10503 10495 10488 10480 10471 10463 10455 10448 10439 10431 10422 10414 10404 10395 10386 10375 10363 10351 10339 10328 10318
10795 10793 10792 10789 10786 10785 10783 10781 10781 10778 10775 10773 10770 10767 10764 10761 10756 10751 10748 10746 10742 10739 10736 10732 10728 10725 10721 10717 10713 10709 10704 10699 10694 10688 10682 10676 10670 10664 10658 10652 10647 10642 10637 10632 10627 10621 10616 10612 10607 10600 10592 10585 10577 10570 10563 10556 10550 10543 10537 10530 10523 10514 10507 10500 10492 10486 10479 10471 10462 10454 10446 10438 10430 10421 10412 10403 10393 10383 10374 10364 10352 10339 10327 10317 10307
10788 10787 10786 10782 10779 10777 10775 10772 10772 10770 10767 10765 10762 10759 10757 10754 10749 10743 10741 10739 10735 10732 10728 10724 10721 10717 10713 10709 10705 10701 10697 10692 10686 10681 10675 10669 10662 10657 10650 10644 10639 10634 10628 10623 10618 10613 10608 10603 10598 10591 10584 10576 10568 10560 10553 10546 10540 10533 10527 10521 10513 10505 10497 10489 10483 10477 10470 10462 10453 10445 10436 10428 10420 10411 10401 10391 10381 10371 10361 10352 10341 10328 10316 10306 10297
10780 10779 10779 10776 10771 10769 10767 10764 10762 10761 10758 10756 10754 10751 10748 10747 10743 10737 10734 10732 10728 10724 10720 10716 10713 10709 10705 10701 10697 10693 10689 10683 10678 10673 10667 10661 10655 10649 10643 10637 10632 10626 10619 10613 10608 10603 10598 10593 10588 10580 10572 10565 10558 10550 10544 10537 10532 10525 10518 10511 10504 10496 10488 10480 10474 10469 10462 10453 10444 10435 10426 10418 10408 10399 10390 10380 10370 10359 10349 10340 10330 10318 10307 10296 10286
10773 10771 10771 10770 10765 10761 10758 10756 10754 10752 10750 10747 10745 10743 10740 10738 10735 10730 10727 10724 10720 10716 10712 10709 10705 10701 10697 10693 10689 10685 10680 10675 10670 10664 10658 10652 10646 10641 10635 10630 10624 10618 10611 10604 10598 10594 10588 10582 10577 10571 10562 10556 10549 10541 10535 10530 10524 10517 10509 10502 10496 10488 10479 10470 10464 10459 10452 10443 10434 10425 10416 10407 10397 10387 10378 10369 10359 10349 10338 10329 10318 10307 10296 10286 10275
10765 10763 10763 10762 10758 10754 10751 10749 10746 10743 10740 10737 10735 10734 10731 10729 10727 10723 10719 10716 10712 10708 10704 10701 10697 10693 10689 10684 10680 10675 10671 10666 10661 10655 10649 10643 10637 10632 10627 10622 10616 10610 10603 10596 10590 10585 10580 10573 10567 10562 10553 10546 10540 10531 10525 10521 10514 10507 10499 10493 10487 10479 10469 10460 10452 10447 10441 10432 10423 10415 10406 10396 10386 10376 10368 10359 10349 10339 10328 10318 10307 10296 10286 10277 10266
10757 10755 10755 10753 10751 10748 10744 10741 10738 10735 10732 10728 10725 10724 10722 10720 10717 10715 10712 10708 10704 10700 10696 10692 10688 10684 10680 10675 10671 10666 10661 10656 10651 10645 10639 10633 10628 10623 10618 10613 10607 10601 10595 10589 10582 10576 10572 10565 10557 10551 10544 10536 10529 10521 10514 10510 10503 10496 10489 10482 10476 10469 10459 10449 10440 10434 10429 10421 10411 10404 10396 10386 10376 10366 10357 10348 10339 10329 10319 10309 10299 10288 10278 10269 10258
10748 10747 10746 10744 10742 10740 10737 10734 10730 10727 10724 10720 10716 10714 10713 10711 10708 10706 10703 10699 10695 10691 10687 10683 10679 10675 10671 10666 10662 10657 10652 10646 10641 10635 10629 10624 10619 10613 10608 10603 10598 10592 10586 10581 10574 10566 10561 10556 10548 10540 10533 10525 10518 10510 10504 10499 10492 10484 10477 10471 10464 10458 10450 10440 10429 10422 10417 10409 10399 10392 10385 10376 10367 10357 10347 10337 10327 10318 10309 10300 10291 10281 10270 10260 10249
10740 10738 10737 10735 10734 10732 10729 10726 10722 10719 10716 10711 10707 10704 10703 10701 10699 10696 10694 10689 10685 10682 10678 10674 10670 10665 10661 10657 10652 10647 10642 10636 10631 10625 10619 10614 10609 10603 10598 10593 10587 10582 10577 10571 10566 10558 10550 10544 10538 10530 10523 10515 10507 10500 10495 10489 10481 10473 10466 10459 10451 10446 10440 10431 10420 10412 10406 10398 10388 10380 10374 10365 10356 10347 10337 10327 10317 10307 10298 10290 10281 10272 10262 10250 10239
10732 10730 10728 10726 10725 10723 10721 10718 10714 10711 10708 10704 10699 10695 10693 10692 10690 10687 10684 10680 10676 10673 10669 10665 10660 10656 10652 10647 10642 10637 10631 10626 10620 10615 10609 10604 10598 10593 10587 10582 10577 10572 10567 10561 10556 10550 10541 10534 10527 10519 10512 10505 10498 10491 10486 10480 10471 10463 10456 10448 10440 10433 10428 10421 10411 10402 10396 10389 10379 10370 10363 10354 10344 10336 10326 10317 10308 10297 10288 10279 10270 10261 10252 10241 10229
10723 10721 10719 10717 10715 10714 10712 10709 10705 10702 10700 10696 10691 10686 10683 10682 10680 10677 10674 10671 10667 10663 10659 10655 10651 10646 10642 10637 10632 10626 10620 10615 10610 10604 10599 10593 10587 10582 10576 10572 10567 10561 10556 10551 10546 10541 10534 10525 10517 10510 10502 10494 10488 10483 10477 10469 10462 10455 10447 10439 10431 10422 10417 10411 10401 10391 10384 10379 10369 10359 10353 10344 10333 10324 10315 10305 10297 10287 10278 10269 10260 10251 10241 10231 10219
10713 10711 10710 10708 10706 10704 10702 10699 10696 10693 10691 10688 10683 10677 10673 10671 10670 10667 10664 10660 10657 10653 10649 10645 10641 10636 10631 10626 10621 10615 10609 10604 10599 10593 10588 10582 10576 10571 10565 10561 10556 10551 10545 10541 10537 10532 10525 10517 10508 10500 10493 10485 10479 10474 10468 10459 10453 10446 10438 10430 10422 10413 10406 10399 10391 10380 10372 10367 10358 10346 10340 10333 10323 10314 10306 10296 10288 10279 10269 10260 10252 10242 10231 10220 10209
10703 10702 10700 10698 10696 10693 10691 10688 10686 10684 10681 10679 10675 10669 10664 10661 10659 10657 10653 10650 10646 10642 10638 10634 10630 10625 10620 10615 10609 10604 10598 10593 10588 10582 10576 10571 10565 10559 10555 10550 10545 10540 10535 10531 10527 10521 10515 10508 10499 10490 10483 10476 10471 10465 10458 10451 10445 10437 10427 10418 10410 10403 10396 10388 10380 10369 10359 10355 10348 10336 10327 10322 10313 10304 10296 10287 10279 10271 10262 10253 10244 10234 10223 10212 10200
10694 10691 10690 10688 10685 10683 10681 10678 10676 10673 10671 10669 10666 10659 10654 10651 10649 10646 10643 10639 10635 10631 10627 10623 10618 10613 10608 10603 10598 10592 10587 10582 10576 10571 10565 10559 10554 10549 10545 10540 10534 10529 10524 10520 10516 10511 10504 10498 10490 10481 10473 10468 10463 10455 10448 10442 10436 10430 10421 10409 10399 10391 10385 10378 10369 10357 10344 10340 10337 10328 10317 10311 10304 10294 10285 10276 10268 10260 10252 10242 10234 10224 10213 10203 10192
10684 10681 10679 10677 10675 10672 10669 10666 10664 10662 10659 10658 10656 10650 10644 10641 10638 10635 10632 10628 10624 10620 10616 10611 10607 10602 10597 10592 10586 10581 10576 10570 10565 10560 10554 10548 10543 10539 10534 10529 10523 10519 10514 10510 10505 10500 10494 10487 10479 10472 10464 10459 10454 10446 10439 10432 10427 10421 10415 10406 10394 10383 10374 10367 10361 10350 10334 10325 10324 10319 10307 10299 10294 10284 10273 10265 10256 10248 10240 10231 10221 10211 10201 10191 10181
10673 10671 10668 10666 10664 10662 10659 10656 10652 10649 10648 10647 10644 10640 10636 10632 10628 10625 10621 10617 10613 10608 10604 10600 10595 10590 10585 10580 10575 10570 10564 10559 10554 10549 10543 10538 10533 10528 10524 10518 10513 10508 10504 10500 10495 10489 10483 10476 10469 10462 10455 10450 10444 10437 10430 10423 10417 10410 10404 10397 10388 10378 10367 10358 10353 10345 10331 10317 10312 10310 10299 10289 10282 10274 10264 10255 10246 10238 10230 10222 10212 10202 10191 10180 10170
10663 10660 10657 10655 10653 10651 10649 10646 10641 10638 10636 10635 10631 10628 10625 10622 10618 10614 10609 10606 10602 10597 10592 10588 10583 10578 10573 10568 10563 10558 10553 10548 10543 10538 10533 10528 10523 10518 10513 10508 10503 10498 10493 10489 10485 10479 10472 10465 10458 10451 10445 10440 10434 10427 10420 10414 10407 10401 10394 10386 10378 10370 10361 10351 10342 10336 10326 10311 10301 10298 10291 10280 10273 10267 10257 10248 10240 10230 10222 10214 10205 10196 10184 10173 10164
10652 10650 10647 10645 10642 10639 10637 10636 10632 10628 10626 10623 10619 10616 10613 10610 10606 10602 10598 10594 10590 10585 10581 10576 10571 10566 10561 10557 10552 10547 10543 10538 10533 10527 10522 10517 10513 10507 10502 10497 10492 10487 10482 10478 10474 10468 10461 10454 10448 10441 10436 10430 10424 10418 10411 10404 10398 10391 10384 10377 10369 10360 10353 10344 10334 10325 10317 10306 10294 10288 10282 10272 10264 10258 10250 10241 10233 10224 10215 10206 10197 10187 10177 10167 10158
10640 10638 10636 10633 10630 10628 10625 10623 10620 10618 10615 10612 10608 10605 10601 10598 10594 10591 10587 10582 10578 10573 10569 10564 10560 10555 10550 10546 10541 10537 10532 10527 10521 10516 10511 10506 10502 10497 10492 10486 10480 10475 10472 10467 10462 10457 10450 10443 10437 10432 10426 10419 10413 10407 10401 10394 10387 10380 10373 10366 10359 10350 10343 10337 10330 10321 10311 10302 10291 10281 10274 10264 10254 10249 10241 10232 10225 10216 10206 10197 10187 10178 10168 10159 10150
10627 10625 10623 10620 10618 10615 10613 10611 10607 10604 10602 10599 10596 10593 10589 10586 10582 10578 10575 10570 10565 10561 10557 10552 10548 10543 10539 10535 10531 10526 10521 10516 10510 10505 10501 10496 10491 10486 10481 10475 10469 10465 10461 10456 10452 10446 10439 10432 10426 10421 10416 10409 10403 10397 10391 10384 10376 10369 10362 10354 10347 10339 10332 10326 10321 10315 10305 10296 10285 10275 10266 10256 10246 10239 10232 10223 10214 10207 10197 10187 10178 10168 10159 10150 10141
10613 10611 10608 10606 10604 10601 10599 10597 10594 10590 10587 10583 10581 10579 10576 10572 10569 10565 10561 10557 10552 10548 10544 10540 10536 10532 10528 10524 10520 10515 10509 10504 10498 10494 10490 10485 10480 10475 10469 10463 10458 10454 10450 10446 10441 10435 10428 10421 10416 10411 10405 10399 10392 10386 10380 10373 10366 10359 10351 10343 10335 10327 10320 10313 10308 10304 10296 10287 10279 10269 10260 10250 10238 10229 10223 10214 10204 10196 10187 10178 10169 10161 10151 10141 10133
10599 10597 10595 10592 10590 10587 10585 10583 10580 10577 10573 10569 10566 10564 10561 10558 10555 10551 10547 10543 10539 10535 10531 10528 10524 10521 10517 10512 10508 10503 10497 10491 10487 10483 10479 10474 10468 10462 10457 10451 10446 10443 10440 10436 10431 10425 10418 10411 10405 10399 10393 10387 10381 10375 10369 10362 10356 10348 10340 10333 10325 10318 10310 10302 10295 10291 10286 10277 10270 10262 10252 10242 10230 10219 10213 10206 10195 10185 10178 10170 10162 10154 10144 10133 10123
10586 10584 10581 10579 10576 10574 10571 10569 10566 10563 10559 10555 10552 10549 10546 10544 10540 10536 10532 10529 10526 10522 10519 10515 10512 10508 10504 10500 10496 10491 10485 10479 10476 10472 10468 10462 10456 10450 10444 10439 10435 10432 10428 10424 10420 10414 10407 10400 10395 10389 10382 10375 10369 10363 10357 10351 10344 10337 10329 10321 10315 10308 10300 10291 10282 10277 10272 10264 10257 10250 10242 10233 10223 10211 10202 10196 10187 10176 10167 10161 10154 10145 10136 10125 10115
10573 10570 10567 10564 10562 10559 10557 10554 10551 10548 10544 10540 10538 10535 10531 10529 10525 10521 10518 10515 10512 10509 10506 10502 10499 10495 10492 10488 10483 10478 10472 10468 10465 10462 10456 10450 10443 10438 10432 10427 10423 10420 10415 10411 10407 10402 10395 10389 10384 10378 10370 10363 10357 10351 10346 10339 10333 10326 10318 10310 10303 10297 10289 10281 10271 10264 10259 10252 10243 10237 10231 10222 10214 10203 10191 10184 10179 10170 10159 10150 10144 10136 10127 10118 10108
10558 10555 10552 10550 10547 10544 10542 10539 10537 10533 10529 10525 10523 10520 10516 10514 10510 10507 10504 10501 10499 10496 10493 10489 10486 10483 10479 10475 10471 10465 10460 10457 10454 10450 10444 10437 10431 10426 10421 10416 10412 10408 10403 10399 10395 10390 10384 10379 10373 10366 10358 10352 10345 10339 10333 10327 10321 10315 10307 10300 10293 10286 10279 10271 10263 10254 10248 10242 10233 10225 10219 10212 10204 10196 10183 10172 10166 10162 10154 10143 10134 10127 10119 10110 10101
10542 10539 10537 10534 10531 10528 10526 10523 10521 10518 10514 10511 10508 10505 10502 10499 10497 10494 10491 10488 10486 10482 10479 10476 10473 10470 10466 10462 10458 10453 10449 10446 10443 10438 10432 10425 10420 10415 10410 10405 10400 10396 10391 10386 10383 10379 10374 10368 10361 10354 10347 10340 10334 10328 10321 10315 10309 10302 10296 10289 10282 10275 10268 10260 10253 10245 10238 10233 10224 10215 10208 10201 10193 10187 10177 10164 10152 10146 10142 10135 10125 10117 10110 10101 10093
10527 10524 10521 10518 10515 10512 10510 10507 10505 10502 10498 10495 10492 10490 10488 10485 10483 10480 10477 10475 10472 10469 10466 10464 10461 10457 10453 10449 10445 10441 10438 10434 10431 10426 10420 10414 10409 10404 10399 10394 10390 10385 10379 10374 10370 10367 10361 10356 10349 10341 10335 10328 10322 10316 10309 10303 10296 10289 10283 10277 10270 10264 10257 10249 10242 10234 10228 10222 10214 10204 10197 10191 10182 10174 10168 10159 10147 10136 10129 10123 10116 10108 10100 10092 10084